Location: Pedholt
(56.0260°N, 10.2097°E)
Time: 01:59:03
(UTC+00:00)

A-11 Canister half - Pass Details

Date: 06 August 2021
Orbit: 1514 x 1685 km, 47.2° (Epoch: 16 September)

Event Time Altitude Azimuth Distance (km) Brightness Sun altitude
Rises 12:56:42 0° 176° (S) 4,736 12.1 46.8°
Reaches altitude 10° 13:01:52 10° 153° (SSE) 3,794 11.5 46.4°
Maximum altitude 13:06:03 14° 126° (SE) 3,537 11.1 46.1°
Drops below altitude 10° 13:10:18 10° 100° (E) 3,862 11.0 45.7°
Sets 13:15:37 0° 78° (ENE) 4,888 11.3 45.3°
